Home   Weather   Paris 02 Bourse   Past weeks
Flag for France

Past Weather in Paris 02 Bourse, Paris, France — Yesterday and Last 2 Weeks

Now
59 °F

Overcast.


Feels Like: 56 °F
Forecast: 58 / 56 °F
Wind: 16 mph from Southwest

Location: Villacoublay

Current Time: Oct 16, 2019 at 2:07:15 pm

Latest Report: Oct 16, 2019 at 1:30 pm


Visibility: N/A

Pressure: 29.80 "Hg

Humidity: 88%

Dew Point: 55 °F

Location of Paris 02 BourseLocation

Past Weather in Paris 02 Bourse — Graph

°F

Paris 02 Bourse Temperature Yesterday

Maximum temperature yesterday: 59 °F (at 12:00 am)
Minimum temperature yesterday: 52 °F (at 11:30 pm)
Average temperature yesterday: 56 °F

High & Low Weather Summary for the Past Weeks

 TemperatureHumidityPressure
High75 °F (Oct 13, 1:30 pm)100% (Oct 2, 12:30 am)30.18 "Hg (Oct 2, 12:30 am)
Low37 °F (Oct 3, 4:30 am)50% (Oct 13, 2:00 pm)29.59 "Hg (Oct 1, 4:00 pm)
Average57 °F83%29.90 "Hg
* Reported Oct 1 1:00 pm — Oct 16 1:00 pm, Paris 02 Bourse. Weather by CustomWeather, © 2019

Note: Actual official high and low records may vary slightly from our data, if they occured in-between our weather recording intervals... More about our weather records

Advertising

Paris 02 Bourse Weather History for the Previous 24 Hours

Scroll right to see more
 ConditionsComfort  
Time TempWeatherWind HumidityBarometerVisibility
1:00 pm
Wed, Oct 16
57 °FLight rain. Overcast.16 mph88%29.80 "Hg4 mi
12:30 pm57 °FOvercast.15 mph88%29.80 "HgN/A
12:00 pm57 °FMostly cloudy.15 mph82%29.80 "HgN/A
11:30 am55 °FBroken clouds.15 mph88%29.80 "HgN/A
11:00 am55 °FMostly cloudy.16 mph88%29.80 "HgN/A
10:30 am57 °FRain. Partly sunny.15 mph82%29.80 "HgN/A
10:00 am57 °FBroken clouds.15 mph82%29.80 "HgN/A
9:30 am55 °FOvercast.15 mph94%29.80 "HgN/A
9:00 am55 °FOvercast.15 mph94%29.80 "HgN/A
8:30 am55 °FOvercast.15 mph94%29.80 "HgN/A
8:00 am55 °FMostly cloudy.14 mph94%29.80 "HgN/A
7:30 am55 °FMostly cloudy.13 mph94%29.80 "HgN/A
7:00 am54 °FMostly cloudy.14 mph100%29.80 "HgN/A
6:30 am54 °FDrizzle. Low clouds.13 mph100%29.80 "HgN/A
6:00 am54 °FLight rain. Low clouds.14 mph94%29.83 "HgN/A
5:30 am54 °FLight rain. Fog.12 mph94%29.83 "Hg3 mi
5:00 am54 °FLight rain. Low clouds.12 mph94%29.83 "HgN/A
4:30 am54 °FLight rain. Mostly cloudy.10 mph94%29.86 "HgN/A
4:00 am52 °FLight rain. Mostly cloudy.9 mph100%29.86 "HgN/A
3:30 am52 °FLight rain. Partly cloudy.9 mph100%29.86 "HgN/A
3:00 am52 °FLight rain. Passing clouds.7 mph94%29.86 "HgN/A
2:30 am52 °FLight rain. Passing clouds.7 mph88%29.89 "HgN/A
2:00 am52 °FMostly cloudy.7 mph88%29.89 "HgN/A
1:30 am52 °FPassing clouds.6 mph88%29.89 "HgN/A
1:00 am52 °FPassing clouds.5 mph82%29.89 "HgN/A
12:30 am52 °FPassing clouds.5 mph82%29.89 "HgN/A
12:00 am52 °FPassing clouds.7 mph88%29.89 "HgN/A
11:30 pm
Tue, Oct 15
52 °FPassing clouds.9 mph88%29.89 "HgN/A
11:00 pm54 °FPassing clouds.8 mph82%29.89 "HgN/A
10:30 pm54 °FPassing clouds.7 mph82%29.86 "HgN/A
10:00 pm54 °FPassing clouds.7 mph88%29.86 "HgN/A
9:30 pm54 °FPartly cloudy.9 mph88%29.86 "HgN/A
9:00 pm54 °FMostly cloudy.8 mph88%29.86 "HgN/A
8:30 pm55 °FPartly cloudy.10 mph77%29.86 "HgN/A
8:00 pm55 °FClear.12 mph77%29.83 "Hg10 mi
7:30 pm55 °FPartly cloudy.14 mph77%29.83 "HgN/A
7:00 pm57 °FPartly sunny.10 mph67%29.80 "HgN/A
6:30 pm59 °FPartly sunny.14 mph63%29.80 "HgN/A
6:00 pm59 °FPartly sunny.8 mph68%29.77 "HgN/A
5:30 pm59 °FBroken clouds.10 mph68%29.77 "HgN/A
5:00 pm59 °FMore clouds than sun.9 mph68%29.77 "HgN/A
4:30 pm59 °FMore clouds than sun.10 mph68%29.77 "HgN/A
4:00 pm59 °FPartly sunny.12 mph68%29.77 "HgN/A
3:30 pm59 °FBroken clouds.9 mph68%29.77 "HgN/A
3:00 pm57 °FPartly sunny.10 mph72%29.77 "HgN/A
2:30 pm57 °FMore clouds than sun.10 mph72%29.77 "HgN/A
2:00 pm59 °FPartly sunny.12 mph68%29.77 "HgN/A
Weather by CustomWeather, © 2019

See weather overview